Regional Weather Roundup
Issued by NWS Northern Indiana

Home | Current Version | Previous Version | Graphics & Text | Print | Product List | Glossary On
Versions: 1 2 3 4 5 6 7 8 9 10 11 12 13 14 15 16 17 18 19 20 21 22 23 24 25 26 27 28 29 30 31 32 33 34 35 36 37 38 39 40 41 42 43 44 45 46 47 48 49 50
000
ASUS43 KIWX 220410
RWRIWX

KIWX WEATHER ROUNDUP
NATIONAL WEATHER SERVICE NORTHERN INDIANA
1200 AM EDT FRI AUG 22 2014

NOTE: "FAIR" INDICATES FEW OR NO CLOUDS BELOW 12,000 FEET WITH NO
SIGNIFICANT WEATHER AND/OR OBSTRUCTIONS TO VISIBILITY.

* THESE STATIONS ARE NOT UNDER NWS QUALITY CONTROL. THEY ALSO MAY NOT
  REPORT WEATHER SUCH AS PRECIPITATION OR FOG.

INZ001>027-220500-
NORTHERN INDIANA

CITY           SKY/WX    TMP DP  RH WIND       PRES   REMARKS
GARY*          MOCLDY    74  72  92 CALM      29.96R
VALPARAISO     MOCLDY    72  70  93 SE5       29.97R
MICHIGAN CITY* MOCLDY    72  72 100 S3        29.97R
LAPORTE*       PTCLDY    69  69 100 CALM      29.98R
KNOX*          MOCLDY    70  67  91 S5        29.96R
SOUTH BEND     PTCLDY    72  68  87 S5        29.98R
GOSHEN         MOCLDY    72  69  90 S5        29.99R
MONTICELLO*    CLOUDY    72  71  95 SE3       29.97R
LOGANSPORT*    CLOUDY    70  68  94 SE5       29.99S
ROCHESTER*     CLOUDY    73  73 100 S3        29.99R
ANGOLA*        CLOUDY    72  70  94 S3        29.99S
FORT WAYNE     CLOUDY    69  67  93 SW5       29.99S
HUNTINGTON*    CLOUDY    69  68  97 SW5       29.99F
PERU/GRISSOM   CLOUDY    70  70 100 SE7       29.99F
MARION*        CLOUDY    69  68  98 S3        30.01F

$$
INZ028>050-220500-
CENTRAL INDIANA

CITY           SKY/WX    TMP DP  RH WIND       PRES   REMARKS
LAFAYETTE      CLOUDY    74  72  93 CALM      29.97R
KOKOMO*        CLOUDY    70  66  88 S8        30.01S
MUNCIE*        LGT RAIN  70  67  90 S7        30.03S
INDIANAPOLIS   CLOUDY    78  72  81 S10       30.00F

$$
MIZ043>046-050>051-056>058-064>065-071>073-077>080-220500-
SOUTHWEST LOWER MICHIGAN

CITY           SKY/WX    TMP DP  RH WIND       PRES   REMARKS
BATTLE CREEK   CLOUDY    74  71  91 CALM      29.99S
BENTON HARBOR  PTCLDY    71  70  96 E5        29.96R FOG
COLDWATER*     CLOUDY    71  70  96 CALM      29.99S
HILLSDALE*     PTCLDY    70  70 100 CALM      30.00F
HOLLAND        CLOUDY    73  70  90 CALM      29.97S FOG
GRAND RAPIDS   MOCLDY    72  72 100 SE3       29.98S FOG
KALAMAZOO      CLOUDY    73  70  90 CALM      29.99R
STURGIS*         N/A     72  70  94 S3        29.98S
THREE RIVERS*  FAIR      71  69  95 CALM      29.98S FOG

$$
OHZ001>008-015>018-024>025-220500-
NORTHWEST OHIO

CITY           SKY/WX    TMP DP  RH WIND       PRES   REMARKS
WAUSEON*       MOCLDY    68  68 100 CALM      29.99S FOG
DEFIANCE       CLOUDY    74  70  87 CALM      29.98S
FINDLAY        CLOUDY    73  69  87 SE5       29.98F
TOLEDO EXPRESS CLOUDY    71  70  96 CALM      29.98S
TOLEDO METCALF CLOUDY    74  68  81 SW6       29.99F
LIMA           LGT RAIN  73  72  96 S12       29.98F

$$
&&


USA.gov is the U.S. government's official web portal to all federal, state and local government web resources and services.